Weather History for KTBX - January, 2013

Change the Weather History Date:

Saturday, January 5, 2013

  Actual Average (KWRL) Record (KWRL)
Temperature  
Mean Temperature 19 °F 16 °F  
Max Temperature 28 °F 30 °F 50 °F (1966)
Min Temperature 10 °F 3 °F -32 °F (1979)
Degree Days  
Heating Degree Days 46 49  
Month to date heating degree days 245  
Since 1 July heating degree days 3608  
Cooling Degree Days 0 0  
Month to date cooling degree days 0  
Year to date cooling degree days 0  
Moisture  
Dew Point 8 °F    
Average Humidity 59    
Maximum Humidity 73    
Minimum Humidity 29    
Precipitation  
Precipitation 0.00 in 0.01 in 0.31 in (1987)
Month to date precipitation 0.04  
Year to date precipitation 0.04  
Sea Level Pressure  
Sea Level Pressure 30.23 in    
Wind  
Wind Speed 15 mph (South)    
Max Wind Speed 26 mph    
Max Gust Speed 24 mph    
Visibility 10 miles    
Events      
T = Trace of Precipitation, MM = Missing Value Source: NWS Daily Summary

Daily Weather History Graph

Daily Weather History Graph

Search for Another Location

Airport or City:

Trip Planner

Search our weather history database for the weather conditions in past years. The results will help you decide how hot, cold, wet, or windy it might be!

Date:

Astronomy

Jan. 05, 2013 Rise Set
Actual Time 7:45 AM MST 4:51 PM MST
Civil Twilight 7:13 AM MST 5:23 PM MST
Nautical Twilight 6:37 AM MST 5:59 PM MST
Astronomical Twilight 6:03 AM MST 6:34 PM MST
Moon 12:49 AM MST (1/5) 11:48 AM MST (1/5)
Length of Visible Light 10h 10m
Length of Day
9h 05m
Last Quarter, 43% of the Moon is Illuminated
Jan 5
Last Quarter
Jan 11
New
Jan 18
First Quarter
Jan 26
Full
Feb 3
Last Quarter

Hourly Weather History & Observations

Time (MST) Temp. Windchill Dew Point Humidity Pressure Visibility Wind Dir Wind Speed Gust Speed Precip Events Conditions
12:15 AM 23.0 °F 13.9 °F 1.4 °F 39% 30.14 in 10.0 mi SSE 8.1 mph - N/A   Clear
12:35 AM 24.8 °F 16.9 °F -0.4 °F 34% 30.14 in 10.0 mi SSE 6.9 mph - N/A   Clear
12:55 AM 26.6 °F 19.1 °F -0.4 °F 31% 30.13 in 10.0 mi SE 6.9 mph - N/A   Clear
1:15 AM 24.8 °F 15.3 °F -0.4 °F 34% 30.13 in 10.0 mi SE 9.2 mph - N/A   Clear
1:35 AM 24.8 °F 16.1 °F -0.4 °F 34% 30.13 in 10.0 mi SE 8.1 mph - N/A   Clear
1:55 AM 26.6 °F 22.6 °F -2.2 °F 29% 30.14 in 10.0 mi South 3.5 mph - N/A   Clear
2:15 AM 28.4 °F 20.4 °F -0.4 °F 29% 30.15 in 10.0 mi WNW 8.1 mph - N/A   Clear
2:55 AM 24.8 °F 9.6 °F 1.4 °F 36% 30.16 in 10.0 mi NW 23.0 mph - N/A   Clear
3:15 AM 23.0 °F 7.2 °F 1.4 °F 39% 30.16 in 10.0 mi NW 23.0 mph - N/A   Clear
3:35 AM 23.0 °F 6.9 °F 3.2 °F 43% 30.16 in 10.0 mi NW 24.2 mph - N/A   Clear
4:15 AM 21.2 °F 4.2 °F 5.0 °F 50% 30.16 in 10.0 mi NW 25.3 mph - N/A   Clear
4:35 AM 21.2 °F 4.2 °F 6.8 °F 54% 30.16 in 10.0 mi NW 25.3 mph - N/A   Clear
4:55 AM 21.2 °F 3.9 °F 8.6 °F 58% 30.16 in 10.0 mi NW 26.5 mph - N/A   Clear
5:15 AM 21.2 °F 3.9 °F 8.6 °F 58% 30.16 in 10.0 mi NW 26.5 mph - N/A   Clear
5:55 AM 21.2 °F 4.2 °F 10.4 °F 63% 30.18 in 10.0 mi NW 25.3 mph - N/A   Clear
6:15 AM 21.2 °F 4.5 °F 8.6 °F 58% 30.20 in 10.0 mi NW 24.2 mph - N/A   Clear
6:35 AM 21.2 °F 4.9 °F 10.4 °F 63% 30.20 in 10.0 mi NW 23.0 mph - N/A   Clear
7:15 AM 21.2 °F 4.9 °F 10.4 °F 63% 30.21 in 10.0 mi NW 23.0 mph - N/A   Clear
7:35 AM 21.2 °F 5.6 °F 10.4 °F 63% 30.22 in 10.0 mi NW 20.7 mph - N/A   Clear
7:55 AM 19.4 °F 3.2 °F 10.4 °F 68% 30.22 in 10.0 mi NW 20.7 mph - N/A   Clear
8:15 AM 19.4 °F 4.1 °F 10.4 °F 68% 30.23 in 10.0 mi NW 18.4 mph - N/A   Clear
8:35 AM 23.0 °F 9.2 °F 10.4 °F 59% 30.24 in 10.0 mi NW 17.3 mph - N/A   Clear
8:55 AM 23.0 °F 10.1 °F 10.4 °F 59% 30.25 in 10.0 mi NW 15.0 mph - N/A   Clear
9:15 AM 23.0 °F 11.7 °F 10.4 °F 59% 30.26 in 10.0 mi NNW 11.5 mph - N/A   Clear
9:35 AM 23.0 °F 8.7 °F 10.4 °F 59% 30.26 in 10.0 mi NNW 18.4 mph - N/A   Clear
10:15 AM 23.0 °F 10.1 °F 12.2 °F 63% 30.28 in 10.0 mi NW 15.0 mph - N/A   Clear
10:35 AM 23.0 °F 10.6 °F 12.2 °F 63% 30.29 in 10.0 mi NW 13.8 mph - N/A   Clear
10:55 AM 23.0 °F 11.7 °F 12.2 °F 63% 30.30 in 10.0 mi NNW 11.5 mph - N/A   Clear
11:15 AM 23.0 °F 12.4 °F 12.2 °F 63% 30.30 in 10.0 mi NNW 10.4 mph - N/A   Clear
11:35 AM 23.0 °F 15.8 °F 12.2 °F 63% 30.30 in 10.0 mi NNW 5.8 mph - N/A   Clear
11:55 AM 24.8 °F 20.5 °F 12.2 °F 59% 30.29 in 10.0 mi NW 3.5 mph - N/A   Clear
12:15 PM 26.6 °F - 14.0 °F 59% 30.28 in 10.0 mi Calm Calm - N/A   Clear
12:55 PM 24.8 °F 19.1 °F 12.2 °F 59% 30.28 in 10.0 mi South 4.6 mph - N/A   Clear
1:15 PM 23.0 °F 12.4 °F 10.4 °F 59% 30.26 in 10.0 mi South 10.4 mph - N/A   Clear
1:35 PM 23.0 °F 9.6 °F 10.4 °F 59% 30.26 in 10.0 mi South 16.1 mph - N/A   Clear
1:55 PM 21.2 °F 6.4 °F 10.4 °F 63% 30.25 in 10.0 mi South 18.4 mph - N/A   Clear
2:15 PM 23.0 °F 9.2 °F 10.4 °F 59% 30.25 in 10.0 mi South 17.3 mph - N/A   Clear
2:35 PM 23.0 °F 9.2 °F 10.4 °F 59% 30.26 in 10.0 mi South 17.3 mph - N/A   Clear
2:55 PM 23.0 °F 9.2 °F 10.4 °F 59% 30.26 in 10.0 mi SSE 17.3 mph - N/A   Clear
3:15 PM 23.0 °F 9.6 °F 12.2 °F 63% 30.26 in 10.0 mi SSE 16.1 mph - N/A   Clear
3:35 PM 23.0 °F 8.7 °F 12.2 °F 63% 30.26 in 10.0 mi SSE 18.4 mph 21.9 mph N/A   Clear
3:55 PM 23.0 °F 9.2 °F 12.2 °F 63% 30.26 in 10.0 mi SSE 17.3 mph - N/A   Clear
4:15 PM 23.0 °F 8.7 °F 12.2 °F 63% 30.26 in 10.0 mi SSE 18.4 mph 23.0 mph N/A   Clear
4:35 PM 23.0 °F 8.3 °F 12.2 °F 63% 30.26 in 10.0 mi SSE 19.6 mph 24.2 mph N/A   Clear
4:55 PM 23.0 °F 9.2 °F 12.2 °F 63% 30.26 in 10.0 mi SSE 17.3 mph - N/A   Clear
5:15 PM 23.0 °F 8.7 °F 12.2 °F 63% 30.26 in 10.0 mi SSE 18.4 mph - N/A   Clear
5:35 PM 23.0 °F 9.2 °F 10.4 °F 59% 30.26 in 10.0 mi SSE 17.3 mph 23.0 mph N/A   Clear
5:55 PM 23.0 °F 10.1 °F 10.4 °F 59% 30.26 in 10.0 mi SSE 15.0 mph 21.9 mph N/A   Clear
6:15 PM 23.0 °F 9.6 °F 10.4 °F 59% 30.26 in 10.0 mi SE 16.1 mph - N/A   Clear
6:35 PM 21.2 °F 6.0 °F 10.4 °F 63% 30.26 in 10.0 mi SE 19.6 mph - N/A   Clear
6:55 PM 19.4 °F 3.6 °F 10.4 °F 68% 30.26 in 10.0 mi SE 19.6 mph - N/A   Clear
7:15 PM 19.4 °F 3.6 °F 10.4 °F 68% 30.26 in 10.0 mi SE 19.6 mph - N/A   Clear
7:35 PM 19.4 °F 3.6 °F 10.4 °F 68% 30.25 in 10.0 mi SE 19.6 mph - N/A   Clear
7:55 PM 17.6 °F 1.3 °F 10.4 °F 73% 30.25 in 10.0 mi SE 19.6 mph - N/A   Clear
8:15 PM 17.6 °F 3.2 °F 8.6 °F 68% 30.25 in 10.0 mi SE 15.0 mph - N/A   Clear
8:35 PM 17.6 °F 1.3 °F 8.6 °F 68% 30.24 in 10.0 mi SE 19.6 mph - N/A   Clear
9:15 PM 15.8 °F -1.9 °F 8.6 °F 73% 30.23 in 10.0 mi SE 21.9 mph - N/A   Clear
9:35 PM 14.0 °F -3.4 °F 6.8 °F 73% 30.23 in 10.0 mi SE 19.6 mph - N/A   Clear
9:55 PM 14.0 °F -3.4 °F 5.0 °F 67% 30.23 in 10.0 mi SE 19.6 mph - N/A   Clear
10:15 PM 14.0 °F -3.0 °F 5.0 °F 67% 30.22 in 10.0 mi SE 18.4 mph - N/A   Clear
10:35 PM 12.2 °F -5.8 °F 5.0 °F 73% 30.21 in 10.0 mi SE 19.6 mph - N/A   Clear
10:55 PM 10.4 °F -9.1 °F 3.2 °F 73% 30.22 in 10.0 mi SE 21.9 mph - N/A   Clear
11:35 PM 12.2 °F -7.5 °F 3.2 °F 67% 30.21 in 10.0 mi SE 24.2 mph - N/A   Clear